Location: Altleiningen
(49.5078°N, 8.0741°E)
Time: 21:37:01
(UTC+00:00)

SL-14 R/B - Pass Details

Date: 14 June 2025
Orbit: 499 x 531 km, 82.4° (Epoch: 16 July)

Event Time Altitude Azimuth Distance (km) Brightness Sun altitude
Exits shadow 20:26:55 - 177° (S) 2,408 6.1 -6.8°
Reaches altitude 10° 20:28:28 10° 174° (S) 1,779 5.4 -7.0°
Maximum altitude 20:32:18 57° 96° (E) 632 3.4 -7.4°
Drops below altitude 10° 20:36:10 10° 18° (NNE) 1,792 6.4 -7.8°
Sets 20:38:21 0° 14° (NNE) 2,685 7.4 -8.0°
